When you browse on this site, cookies collect data to enhance your experience and personalize the content and advertising you see.
Visit our Privacy Policy to learn more. By continuing to use the site, you agree to this use of cookies and data.
  • In Sweden
  • List of Countries
  • For 7 days
  • Water Temperature
  • Weather Map
  • Weather Widgets
  • user-avatar
    Login

    Hourly Weather Knyazevka

    Today, 21 September, Saturday

    Time Temperature Precipitation Wind Pressure Humidity
    00:00 +7°C° 0 mm 1 mps 737 mmHg 89%
    01:00 +6°C° 0 mm 1 mps 737 mmHg 89%
    02:00 +5°C° 0 mm 0 mps 737 mmHg 89%
    03:00 +5°C° 0 mm 0 mps 737 mmHg 90%
    04:00 +5°C° 0.1 mm 0 mps 737 mmHg 90%
    05:00 +5°C° 0.1 mm 0 mps 737 mmHg 90%
    06:00 +5°C° 0.1 mm 0 mps 737 mmHg 91%
    07:00 +7°C° 0.1 mm 1 mps 737 mmHg 87%
    08:00 +8°C° 0.1 mm 1 mps 737 mmHg 84%
    09:00 +9°C° 0 mm 1 mps 737 mmHg 78%
    10:00 +9°C° 0.2 mm 1 mps 736 mmHg 73%
    11:00 +10°C° 0.2 mm 1 mps 736 mmHg 68%
    12:00 +10°C° 0.2 mm 2 mps 736 mmHg 63%
    13:00 +10°C° 0.4 mm 2 mps 736 mmHg 62%
    14:00 +10°C° 0.4 mm 2 mps 735 mmHg 61%
    15:00 +12°C° 0.4 mm 2 mps 735 mmHg 61%
    16:00 +9°C° 0.4 mm 2 mps 735 mmHg 66%
    17:00 +8°C° 0.4 mm 2 mps 735 mmHg 72%
    18:00 +8°C° 0.4 mm 1 mps 735 mmHg 78%
    19:00 +7°C° 0.5 mm 2 mps 735 mmHg 81%
    20:00 +6°C° 0.5 mm 2 mps 735 mmHg 84%
    21:00 +5°C° 0.5 mm 3 mps 735 mmHg 87%
    22:00 +4°C° 0.2 mm 3 mps 735 mmHg 89%
    23:00 +5°C° 0.2 mm 2 mps 735 mmHg 91%

    Tomorrow, 22 September, Sunday

    Time Temperature Precipitation Wind Pressure Humidity
    00:00 +4°C° 0.2 mm 2 mps 734 mmHg 93%
    01:00 +3°C° 0 mm 2 mps 734 mmHg 93%
    02:00 +3°C° 0 mm 2 mps 734 mmHg 94%
    03:00 +3°C° 0 mm 2 mps 734 mmHg 94%
    04:00 +3°C° 0 mm 2 mps 733 mmHg 94%
    05:00 +2°C° 0 mm 2 mps 733 mmHg 94%
    06:00 +2°C° 0 mm 2 mps 732 mmHg 94%
    07:00 +2°C° 0 mm 3 mps 732 mmHg 88%
    08:00 +4°C° 0 mm 4 mps 731 mmHg 81%
    09:00 +5°C° 0 mm 5 mps 731 mmHg 75%
    10:00 +3°C° 0.2 mm 6 mps 730 mmHg 79%
    11:00 +3°C° 0.2 mm 7 mps 729 mmHg 84%
    12:00 +2°C° 0.2 mm 8 mps 728 mmHg 88%
    13:00 +2°C° 0.8 mm 7 mps 727 mmHg 90%
    14:00 +2°C° 0.8 mm 7 mps 726 mmHg 92%
    15:00 +2°C° 0.8 mm 6 mps 725 mmHg 94%
    16:00 +3°C° 0.6 mm 7 mps 724 mmHg 90%
    17:00 +3°C° 0.6 mm 7 mps 724 mmHg 87%
    18:00 +4°C° 0.6 mm 7 mps 723 mmHg 83%
    19:00 +3°C° 0.1 mm 7 mps 723 mmHg 83%
    20:00 +2°C° 0.1 mm 7 mps 723 mmHg 83%
    21:00 0°C° 0.1 mm 7 mps 723 mmHg 83%
    22:00 0°C° 0.1 mm 8 mps 724 mmHg 86%
    23:00 0°C° 0.1 mm 9 mps 724 mmHg 88%

    Day after tomorrow, 23 September, Monday

    Time Temperature Precipitation Wind Pressure Humidity
    00:00 0°C° 0.1 mm 10 mps 724 mmHg 90%
    01:00 0°C° 0.2 mm 10 mps 725 mmHg 92%
    02:00 0°C° 0.2 mm 10 mps 726 mmHg 93%
    03:00 -2°C° 0.2 mm 10 mps 726 mmHg 95%
    04:00 0°C° 0.2 mm 10 mps 728 mmHg 91%
    05:00 0°C° 0.2 mm 9 mps 729 mmHg 88%
    06:00 0°C° 0.2 mm 8 mps 730 mmHg 84%
    07:00 0°C° 0.1 mm 8 mps 731 mmHg 82%
    08:00 0°C° 0.1 mm 8 mps 732 mmHg 79%
    09:00 +1°C° 0.1 mm 8 mps 733 mmHg 76%
    10:00 +1°C° 0 mm 8 mps 734 mmHg 75%
    11:00 +1°C° 0 mm 8 mps 734 mmHg 73%
    12:00 +1°C° 0 mm 8 mps 735 mmHg 71%
    13:00 +1°C° 0 mm 8 mps 735 mmHg 72%
    14:00 +2°C° 0 mm 7 mps 736 mmHg 74%
    15:00 0°C° 0 mm 7 mps 736 mmHg 75%
    16:00 0°C° 0 mm 7 mps 736 mmHg 75%
    17:00 +1°C° 0 mm 6 mps 737 mmHg 74%
    18:00 +1°C° 0 mm 6 mps 737 mmHg 73%
    19:00 +1°C° 0 mm 6 mps 737 mmHg 75%
    20:00 +1°C° 0 mm 5 mps 738 mmHg 77%
    21:00 +1°C° 0 mm 5 mps 738 mmHg 79%
    22:00 0°C° 0 mm 5 mps 738 mmHg 80%
    23:00 0°C° 0 mm 5 mps 738 mmHg 82%

    24 September, Tuesday

    Time Temperature Precipitation Wind Pressure Humidity
    00:00 0°C° 0 mm 4 mps 738 mmHg 83%
    01:00 -1°C° 0 mm 4 mps 739 mmHg 85%
    02:00 -1°C° 0 mm 4 mps 739 mmHg 86%
    03:00 -1°C° 0 mm 4 mps 739 mmHg 88%
    04:00 -2°C° 0 mm 4 mps 740 mmHg 89%
    05:00 -1°C° 0 mm 3 mps 740 mmHg 90%
    06:00 -2°C° 0 mm 3 mps 740 mmHg 91%
    07:00 0°C° 0 mm 3 mps 740 mmHg 84%
    08:00 0°C° 0 mm 4 mps 740 mmHg 78%
    09:00 +3°C° 0 mm 4 mps 741 mmHg 72%
    10:00 +4°C° 0 mm 4 mps 741 mmHg 67%
    11:00 +5°C° 0 mm 5 mps 741 mmHg 63%
    12:00 +6°C° 0 mm 5 mps 741 mmHg 58%
    13:00 +6°C° 0.1 mm 5 mps 741 mmHg 57%
    14:00 +6°C° 0.1 mm 5 mps 741 mmHg 56%
    15:00 +6°C° 0.1 mm 5 mps 740 mmHg 56%
    16:00 +5°C° 0.1 mm 4 mps 740 mmHg 60%
    17:00 +4°C° 0.1 mm 3 mps 740 mmHg 65%
    18:00 +3°C° 0.1 mm 3 mps 740 mmHg 70%
    19:00 +3°C° 0 mm 3 mps 741 mmHg 72%
    20:00 +2°C° 0 mm 3 mps 741 mmHg 75%
    21:00 +3°C° 0 mm 2 mps 741 mmHg 78%
    22:00 +2°C° 0 mm 2 mps 741 mmHg 79%
    23:00 +2°C° 0 mm 2 mps 741 mmHg 81%

    25 September, Wednesday

    Time Temperature Precipitation Wind Pressure Humidity
    00:00 +1°C° 0 mm 2 mps 741 mmHg 83%
    01:00 +1°C° 0 mm 2 mps 741 mmHg 83%
    02:00 +1°C° 0 mm 2 mps 741 mmHg 84%
    03:00 +1°C° 0 mm 2 mps 741 mmHg 85%
    04:00 +1°C° 0 mm 2 mps 741 mmHg 85%
    05:00 +1°C° 0 mm 2 mps 741 mmHg 84%
    06:00 +1°C° 0 mm 2 mps 741 mmHg 84%
    07:00 +2°C° 0 mm 2 mps 742 mmHg 79%
    08:00 +4°C° 0 mm 2 mps 742 mmHg 73%
    09:00 +5°C° 0 mm 2 mps 742 mmHg 67%
    10:00 +5°C° 0 mm 3 mps 742 mmHg 63%
    11:00 +7°C° 0 mm 3 mps 742 mmHg 58%
    12:00 +8°C° 0 mm 3 mps 742 mmHg 53%
    13:00 +8°C° 0 mm 3 mps 742 mmHg 53%
    14:00 +8°C° 0 mm 3 mps 742 mmHg 53%
    15:00 +8°C° 0 mm 3 mps 742 mmHg 53%
    16:00 +7°C° 0 mm 2 mps 742 mmHg 56%
    17:00 +7°C° 0 mm 2 mps 742 mmHg 58%
    18:00 +7°C° 0 mm 1 mps 742 mmHg 61%
    19:00 +7°C° 0 mm 1 mps 742 mmHg 63%
    20:00 +7°C° 0 mm 1 mps 743 mmHg 64%
    21:00 +5°C° 0 mm 0 mps 743 mmHg 66%
    22:00 +6°C° 0 mm 1 mps 743 mmHg 67%
    23:00 +5°C° 0 mm 1 mps 743 mmHg 69%

    26 September, Thursday

    Time Temperature Precipitation Wind Pressure Humidity
    00:00 +5°C° 0 mm 1 mps 743 mmHg 71%
    01:00 +5°C° 0 mm 1 mps 743 mmHg 72%
    02:00 +4°C° 0 mm 1 mps 743 mmHg 74%
    03:00 +4°C° 0 mm 1 mps 743 mmHg 75%
    04:00 +3°C° 0 mm 1 mps 743 mmHg 77%
    05:00 +3°C° 0 mm 1 mps 744 mmHg 78%
    06:00 +2°C° 0 mm 0 mps 744 mmHg 80%
    07:00 +3°C° 0 mm 0 mps 744 mmHg 74%
    08:00 +5°C° 0 mm 0 mps 744 mmHg 68%
    09:00 +6°C° 0 mm 0 mps 744 mmHg 62%
    10:00 +8°C° 0 mm 1 mps 744 mmHg 58%
    11:00 +9°C° 0 mm 1 mps 744 mmHg 55%
    12:00 +10°C° 0 mm 1 mps 744 mmHg 51%
    13:00 +9°C° 0 mm 0 mps 744 mmHg 49%
    14:00 +10°C° 0 mm 0 mps 744 mmHg 48%
    15:00 +10°C° 0 mm 0 mps 744 mmHg 47%
    16:00 +9°C° 0 mm 0 mps 744 mmHg 50%
    17:00 +9°C° 0 mm 1 mps 744 mmHg 54%
    18:00 +8°C° 0 mm 1 mps 744 mmHg 58%
    19:00 +6°C° 0 mm 2 mps 744 mmHg 60%
    20:00 +6°C° 0 mm 2 mps 744 mmHg 61%
    21:00 +5°C° 0 mm 2 mps 744 mmHg 63%
    22:00 +5°C° 0 mm 2 mps 744 mmHg 65%
    23:00 +5°C° 0 mm 2 mps 744 mmHg 67%
    Show more